Flag for Barbados Weather past 2 weeks in Bridgetown, Barbados

Now
77 °F

Rain. Partly cloudy.


Feels Like: 78 °F
Forecast: 82 / 87 °F
Wind: 9 mph from Northeast

Location: Grantley Adams

Current Time: Sep 21, 2014 at 10:24:48 PM

Latest Report: Sep 21, 2014 at 10:00 PM


Visibility: 5 mi

Pressure: 30.01 "Hg

Humidity: 89%

Dew point: 73 °F

Location of BridgetownLocation

Historic Weather in Bridgetown — Graph

°F

Bridgetown temperature yesterday

Maximum temperature yesterday: 84 °F (at 9:00 AM)
Minimum temperature yesterday: 79 °F (at 4:00 AM)
Average temperature yesterday: 81 °F

Past Weeks' High & Low Weather Summary

 TemperatureHumidityPressure
High88 °F (Sep 7, 11:00 AM)100% (Sep 19, 10:00 AM)30.04 "Hg (Sep 19, 10:00 AM)
Low73 °F (Sep 19, 10:00 AM)59% (Sep 9, 12:00 PM)29.86 "Hg (Sep 10, 4:00 PM)
Average82 °F82%29.93 "Hg
* Reported Sep 6 8:00 PM — Sep 21 8:00 PM, Bridgetown, Weather by CustomWeather, © 2014

Note: Actual official high and low records may vary slightly from our data, if they occured in-between our weather recording intervals... More about our weather records

Advertising

Bridgetown weather history for previous 24 hours

 ConditionsComfort  
Time TempWeatherWind HumidityBarometerVisibility
8:00 PM
Sep 21
77 °FRain. Passing clouds.7 mph89%29.98 "Hg3 mi
7:00 PM77 °FLight rain. Low clouds.6 mph94%29.95 "Hg3 mi
6:00 PM77 °FLight rain. Low clouds.7 mph94%29.95 "Hg2 mi
5:00 PM79 °FLots of rain. Broken clouds.9 mph94%29.92 "Hg1 mi
4:00 PM81 °FBroken clouds.10 mph89%29.92 "HgN/A
3:00 PM81 °FScattered clouds.10 mph84%29.92 "HgN/A
2:00 PM79 °FScattered clouds.6 mph84%29.92 "HgN/A
1:00 PM84 °FSprinkles. Scattered clouds.9 mph84%29.95 "HgN/A
12:00 PM81 °FBroken clouds.7 mph84%29.95 "HgN/A
11:00 AM81 °FRain showers. Broken clouds.24 mph89%29.98 "Hg2 mi
10:00 AM86 °FBroken clouds.9 mph79%30.01 "HgN/A
9:00 AM84 °FBroken clouds.10 mph79%29.98 "HgN/A
8:00 AM82 °FPartly sunny.6 mph84%29.95 "HgN/A
7:00 AM82 °FScattered showers. Broken clouds.3 mph84%29.92 "HgN/A
6:00 AM77 °FScattered showers. Broken clouds.3 mph94%29.92 "HgN/A
5:00 AM79 °FPartly cloudy.9 mph94%29.89 "HgN/A
4:00 AM81 °FPartly cloudy.9 mph89%29.89 "HgN/A
3:00 AM79 °FPartly cloudy.9 mph94%29.86 "HgN/A
2:00 AM79 °FPassing clouds.7 mph94%29.89 "HgN/A
1:00 AM81 °FScattered showers. Partly cloudy.6 mph89%29.92 "HgN/A
12:00 AM81 °FPartly cloudy.12 mph89%29.92 "HgN/A
11:00 PM
Sep 20
81 °FPartly cloudy.14 mph84%29.95 "HgN/A
10:00 PM81 °FPassing clouds.14 mph89%29.95 "HgN/A
Weather by CustomWeather, © 2014

See weather overviewHow to use our weather pages